星链-5641 (STARLINK-5641 )

导读

STARLINK-5641是美国太空探索技术公司星链星座的卫星,于2023年1月26日发射入轨,属于星链互联网卫星组网的组成部分。它依托低轨轨道部署,为全球提供高速低延迟互联网服务,进一步扩充了星链星座的服务覆盖范围,同时星链大规模卫星部署也引发了业内对空间轨道资源占用与太空交通安全的相关讨论。

Basic Information
目录编号:
55359
目录名称:
STARLINK-5641
国际标识:
2023-013AE
轨道中心:
EARTH
卫星名称:
星链-5641
卫星全名:
星链-5641 (STARLINK-5641 )
卫星状态:
在轨 (已飞行1236 天)
发射日期:
2023-01-26 UTC
国别 :
美国 (US)
星等 :
--
Orbit Information
数据来源 国际轨道数据 AOE轨道数据
星历时间 2026-06-13T22:45:34+0800
1天前
查看轨道信息
2026-06-13T00:00:00+0800
2天前
查看轨道信息
半长轴 6861.19km 6861.124km
偏心率 0.0001427 0.0000195
轨道倾角 43.005° 43.001°
近地点辐角 264.492° 321.596°
升交点赤经 125.106° 130.463°
平近点角 95.577° 217.312°
近地点 482.073km 482.853km
远地点 484.033km 483.121km
周期 94.267分钟 94.265分钟
每日圈数 15.275787 15.276009
Detailed Information
固有亮度:
5
最大亮度:
2.5
卫星平台:
Starlink v1.5
覆盖范围:
全球
运营商:
太空探索技术公司
运营商所在国:
美国
制造商(研发单位):
太空探索技术公司
制造商所在国:
美国
使用方式:
暂无
Satellite Introduction
星链(Starlink)计划是由太空探索技术公司(SpaceX)提出的一个巨型低轨卫星互联网星座项目,计划在2019年至2024年间在太空搭建由约1.2万颗卫星组成的“星链”网络,其中1584颗将部署在地球上空550千米处的近地轨道,并从2020年开始工作。该卫星仍在工作。
2D Orbit Map
3D Orbit Map
Orbit Altitude Analysis Chart
Orbit Inclination Analysis Chart
Orbit Comprehensive Analysis Chart
View Comprehensive Chart